{"data":{"norad_id":61850,"intl_designator":"2024-202F","name":"STARLINK-32330","alt_names":[],"object_type":"PAYLOAD","status":"ACTIVE","operator":null,"country":"US","launch_date":"2024-11-07","launch_site_code":"AFETR","launch_vehicle":null,"mission":null,"orbit_class":"UNKNOWN","rcs_meters":null,"size_class":null,"mass_kg":null,"dimensions":null,"purposes":["comms"],"wikipedia_slug":null,"has_3d_model":false,"image_url":null,"decayed_at":null,"tle_current":{"epoch":"2026-05-25T01:45:09.454176Z","epoch_age_seconds":64735,"freshness":"FRESH","line1":"1 61850U 24202F   26145.07302609  .00000843  00000+0  40154-4 0  9997","line2":"2 61850  43.0013 166.2587 0001107 276.0366  84.0360 15.27579052 87028","mean_motion":15.27579052,"eccentricity":0.0001107,"inclination_deg":43.0013,"raan_deg":166.2587,"arg_perigee_deg":276.0366,"mean_anomaly_deg":84.036,"bstar":4.0154e-5,"rev_number":8702,"period_min":94.266807214636,"perigee_km":482.29240107909,"apogee_km":483.81146830923,"semimajor_km":6861.1889346942,"source":"CELESTRAK","updated_at":"2026-05-25T13:38:19.450424Z"}}}